logo tempoitalia

Diretta Meteo Comiso As Usaf, Italiamercoledì 12 maggio ore 05:20

Mappa
Sereno 12 °C Molto Nuvoloso 24 Ore: T.min 12 T.max 27
Ponente Nord Km/h 3.7 Punto di rugiada: 11 °C Umidità: 93% Visibilità: 10 Km
Il sole sorge alle: 05:54 Il sole tramonta alle: 20:01
12 Maggio 2021 05:20 tempo osservato: Molto Nuvoloso Molto Nuvoloso 12 93 1014 vento: Nord N 3.7
12 Maggio 2021 04:50 tempo osservato: Sereno Sereno 12 93 1014 vento: Nord N 3.7
12 Maggio 2021 04:20 tempo osservato: Sereno Sereno 12 93 1014 vento: Nord N 1.8
12 Maggio 2021 03:50 tempo osservato: Sereno Sereno 12 87 1013 vento: Nord N 3.7
12 Maggio 2021 03:20 tempo osservato: Sereno Sereno 13 87 1014 vento: Nord N 3.7
12 Maggio 2021 02:50 tempo osservato: Sereno Sereno 13 87 1014 vento: Nord N 3.7
12 Maggio 2021 02:20 tempo osservato: Sereno Sereno 14 87 1014 vento: Nord N 1.8
12 Maggio 2021 01:50 tempo osservato: Poco Nuvoloso Poco Nuvoloso 14 87 1014 vento: Nord N 5.5
12 Maggio 2021 01:20 tempo osservato: Sereno Sereno 15 87 1014 vento: Nord E 7.4
12 Maggio 2021 00:50 tempo osservato: Sereno Sereno 14 87 1015 vento: Nord E 7.4
12 Maggio 2021 00:20 tempo osservato: Sereno Sereno 15 82 1015 vento: Nord N 3.7
11 Maggio 2021 23:50 tempo osservato: Sereno Sereno 15 82 1015 vento: Nord N 1.8
11 Maggio 2021 23:20 tempo osservato: Nuvoloso Nuvoloso 16 77 1015 vento: Nord N 3.7
11 Maggio 2021 22:50 tempo osservato: Sereno Sereno 16 72 1016 vento: Nord N 5.5
11 Maggio 2021 22:20 tempo osservato: Poco Nuvoloso Poco Nuvoloso 16 82 1016 vento: Nord N 1.8
11 Maggio 2021 21:50 tempo osservato: Sereno Sereno 16 72 1016 vento: Nord N 5.5
11 Maggio 2021 21:20 tempo osservato: Sereno Sereno 17 63 1015 vento: Nord N 1.8
11 Maggio 2021 20:20 tempo osservato: Sereno Sereno 18 51 1015 vento: Nord O 7.4
11 Maggio 2021 19:50 tempo osservato: Sereno Sereno 20 42 1015 vento: Nord O/SO 11.1
11 Maggio 2021 19:20 tempo osservato: Sereno Sereno 21 32 1015 vento: Nord O/SO 11.1
11 Maggio 2021 18:50 tempo osservato: Sereno Sereno 22 32 1015 vento: Nord O/SO 16.7
11 Maggio 2021 18:20 tempo osservato: Poco Nuvoloso Poco Nuvoloso 23 33 1014 vento: Nord O/SO 20.3
11 Maggio 2021 17:50 tempo osservato: Sereno Sereno 24 31 1014 vento: Nord O/SO 22.2
11 Maggio 2021 17:20 tempo osservato: Sereno Sereno 25 29 1014 vento: Nord SO 16.7
11 Maggio 2021 16:50 tempo osservato: Sereno Sereno 26 27 1014 vento: Nord SO 13
11 Maggio 2021 16:20 tempo osservato: Sereno Sereno 26 27 1014 vento: Nord S/SO 13
11 Maggio 2021 15:50 tempo osservato: Sereno Sereno 26 27 1015 vento: Nord SO 20.3
11 Maggio 2021 15:20 tempo osservato: Sereno Sereno 26 29 1014 vento: Nord S/SO 16.7
11 Maggio 2021 14:50 tempo osservato: Sereno Sereno 27 26 1015 vento: Nord SO 20.3
11 Maggio 2021 14:20 tempo osservato: Sereno Sereno 27 24 1015 vento: Nord S/SO 13
11 Maggio 2021 13:50 tempo osservato: Sereno Sereno 27 24 1015 vento: Nord S/SO 14.8
11 Maggio 2021 13:20 tempo osservato: Sereno Sereno 27 24 1015 vento: Nord S/SO 16.7
11 Maggio 2021 12:50 tempo osservato: Sereno Sereno 27 26 1015 vento: Nord S 13
11 Maggio 2021 12:20 tempo osservato: Sereno Sereno 27 24 1015 vento: Nord S/SO 13
11 Maggio 2021 11:50 tempo osservato: Sereno Sereno 26 25 1016 vento: Nord S/SO 13
11 Maggio 2021 11:20 tempo osservato: Sereno Sereno 26 25 1016 vento: Nord S/SO 13
11 Maggio 2021 10:50 tempo osservato: Sereno Sereno 26 25 1016 vento: Nord S 11.1
11 Maggio 2021 10:20 tempo osservato: Sereno Sereno 25 29 1016 vento: Nord S 11.1
11 Maggio 2021 09:50 tempo osservato: Sereno Sereno 24 35 1016 vento: Nord S 7.4
11 Maggio 2021 09:20 tempo osservato: Sereno Sereno 24 38 1015 vento: Nord S 7.4
11 Maggio 2021 08:50 tempo osservato: Sereno Sereno 23 40 1016 vento: Nord N 7.4
11 Maggio 2021 08:20 tempo osservato: Sereno Sereno 22 46 1016 vento: Nord N 3.7
11 Maggio 2021 07:20 tempo osservato: Molto Nuvoloso Molto Nuvoloso 15 72 1016 vento: Nord N 5.5